FW1396 Weather Reports


Display with metric or nautical units.
time (UTC)temp
F
wind
direction
speed
MPH
gust
MPH
rain 1hr
in
rain 24hr
in
rain mn
in
humidity
%
barometer
mb
20260506062146 47 83 2.0 4.0 0.05 0.56 0.05 95 995.3
20260506061646 47 45 2.0 3.0 0.05 0.56 0.05 95 995.5
20260506061146 47 55 2.0 3.0 0.05 0.56 0.05 95 995.4
20260506060646 47 0 0.0 3.0 0.05 0.56 0.05 95 995.3
20260506060145 47 92 0.0 4.0 0.05 0.56 0.05 95 995.2
20260506051143 47 55 2.0 3.0 0.06 0.51 0.00 95 995.2
20260506050644 47 61 2.0 4.0 0.10 0.51 0.00 95 994.8
20260506050143 47 109 2.0 4.0 0.16 0.51 0.00 95 995.2
20260506044642 47 83 2.0 6.0 0.20 0.50 0.50 95 994.5
20260506044145 47 20 2.0 4.0 0.18 0.49 0.49 95 994.9
20260506043643 47 20 2.0 4.0 0.18 0.49 0.49 95 995.8
20260506043142 47 75 0.0 5.0 0.18 0.49 0.49 94 994.7
20260506042641 47 59 2.0 5.0 0.18 0.49 0.49 94 994.6
20260506042142 47 63 1.0 4.0 0.17 0.47 0.48 94 994.3
20260506041641 47 38 2.0 9.0 0.17 0.47 0.47 94 994.3
20260506041140 47 86 3.0 9.0 0.15 0.46 0.46 94 994.2
20260506040641 48 11 2.0 5.0 0.10 0.41 0.41 94 994.8
20260506040140 48 358 1.0 6.0 0.05 0.35 0.36 94 994.1
20260506035642 48 102 3.0 6.0 0.01 0.31 0.32 94 994.2
20260506035141 48 72 2.0 6.0 0.01 0.31 0.31 94 993.7
20260506034640 48 86 4.0 6.0 0.00 0.31 0.31 94 993.1
20260506034142 48 41 2.0 6.0 0.00 0.31 0.31 95 993.6
20260506033640 48 102 2.0 6.0 0.02 0.31 0.31 94 993.8
20260506033140 48 37 2.0 5.0 0.07 0.31 0.31 94 994.2
20260506032637 48 39 3.0 4.0 0.11 0.31 0.31 94 994.3
20260506032144 48 68 1.0 4.0 0.13 0.31 0.31 94 994.2
20260506031653 48 59 2.0 6.0 0.14 0.31 0.31 94 994.2
20260506031141 48 51 2.0 6.0 0.14 0.31 0.31 94 994.3
20260506030639 48 7 2.0 3.0 0.14 0.31 0.31 94 994.7
20260506030140 49 11 2.0 4.0 0.14 0.31 0.31 94 994.3
20260506025641 49 11 2.0 4.0 0.14 0.31 0.31 94 994.0
20260506025138 49 82 2.0 3.0 0.14 0.31 0.31 94 994.0
20260506024639 49 10 2.0 6.0 0.14 0.31 0.31 94 993.7
20260506024138 49 79 3.0 6.0 0.14 0.31 0.31 94 993.6
20260506023638 49 35 2.0 5.0 0.13 0.29 0.30 94 994.1
20260506023138 49 68 3.0 6.0 0.07 0.24 0.24 94 993.5
20260506022910 49 16 2.0 6.0 0.04 0.20 0.20 94 993.9
20260506022409 49 18 1.0 3.0 0.02 0.18 0.18 94 993.4
20260506021639 49 34 3.0 6.0 0.01 0.17 0.17 94 993.3
20260506021137 49 34 3.0 9.0 0.01 0.17 0.17 94 993.2
20260506020637 49 25 2.0 9.0 0.01 0.17 0.17 94 993.1
20260506020136 49 113 2.0 4.0 0.01 0.17 0.17 94 993.0
20260506015635 49 68 3.0 9.0 0.01 0.17 0.17 94 993.0
20260506015136 49 47 2.0 9.0 0.01 0.17 0.17 94 993.2
20260506014636 50 3 2.0 6.0 0.01 0.17 0.17 94 993.0
20260506014136 50 37 3.0 5.0 0.01 0.17 0.17 94 992.9
20260506013635 50 58 1.0 9.0 0.02 0.17 0.17 94 993.0
20260506013137 50 69 4.0 9.0 0.02 0.17 0.17 94 992.8
20260506012635 51 102 6.0 11.0 0.01 0.16 0.16 94 992.4
20260506012135 51 102 6.0 11.0 0.01 0.16 0.16 94 992.8
20260506011634 51 76 3.0 6.0 0.01 0.16 0.16 94 992.6
20260506011135 51 103 2.0 5.0 0.01 0.16 0.16 94 992.9
20260506010635 51 34 1.0 5.0 0.01 0.16 0.16 94 993.0
20260506010133 51 65 2.0 6.0 0.01 0.16 0.16 94 992.7
20260506005634 51 21 2.0 6.0 0.01 0.16 0.16 94 992.6
20260506005134 51 16 3.0 6.0 0.01 0.16 0.16 94 992.5
20260506004634 51 13 1.0 3.0 0.01 0.16 0.16 94 992.2
20260506004134 52 63 1.0 3.0 0.01 0.16 0.16 94 991.8
20260506003634 52 78 2.0 3.0 0.00 0.15 0.15 94 991.8
20260506003403 52 62 1.0 4.0 0.00 0.15 0.15 94 991.8
20260506002632 52 87 2.0 4.0 0.00 0.15 0.15 94 991.7
20260506002133 52 45 1.0 4.0 0.00 0.15 0.15 94 991.9
20260506001631 52 30 1.0 9.0 0.00 0.15 0.15 94 991.9
20260506001134 52 27 4.0 9.0 0.00 0.15 0.15 94 991.7
20260506000632 52 24 5.0 6.0 0.00 0.15 0.15 94 991.6
20260506000137 52 27 3.0 6.0 0.00 0.15 0.15 94 991.6
20260505235631 53 31 2.0 6.0 0.00 0.15 0.15 94 991.6
20260505235132 53 62 2.0 5.0 0.00 0.15 0.15 94 991.4
20260505234631 53 3 3.0 4.0 0.00 0.15 0.15 94 991.3
20260505234132 53 41 3.0 4.0 0.00 0.15 0.15 94 991.4
20260505233902 54 3 3.0 3.0 0.01 0.15 0.15 94 991.7
20260505233402 54 31 3.0 4.0 0.01 0.15 0.15 94 991.7
20260505232630 54 8 3.0 4.0 0.01 0.15 0.15 94 991.8
20260505232402 54 68 1.0 2.0 0.01 0.15 0.15 94 991.5
20260505231630 54 58 1.0 2.0 0.01 0.15 0.15 94 991.4
20260505231130 54 87 1.0 2.0 0.01 0.15 0.15 94 991.3
20260505230630 54 75 1.0 2.0 0.01 0.15 0.15 94 991.2
20260505230130 54 72 1.0 2.0 0.01 0.15 0.15 94 991.2
20260505225629 54 72 1.0 6.0 0.01 0.15 0.15 94 991.2
20260505225128 54 72 3.0 6.0 0.01 0.15 0.15 94 991.1
20260505224629 54 96 3.0 4.0 0.01 0.15 0.15 94 991.0
20260505224129 54 86 3.0 5.0 0.01 0.15 0.15 94 991.0
20260505223900 54 92 2.0 6.0 0.00 0.14 0.14 93 991.3
20260505223128 54 48 3.0 6.0 0.00 0.14 0.14 93 991.8
20260505222859 54 24 2.0 5.0 0.00 0.14 0.14 93 991.7
20260505222127 54 42 2.0 5.0 0.00 0.14 0.14 93 991.5
20260505221623 55 35 1.0 3.0 0.00 0.14 0.14 93 991.4
20260505221127 55 39 2.0 5.0 0.00 0.14 0.14 93 991.2
20260505220626 55 39 1.0 5.0 0.00 0.14 0.14 93 990.6
20260505220126 55 63 2.0 5.0 0.00 0.14 0.14 93 990.6
20260505215626 55 71 1.0 4.0 0.00 0.14 0.14 93 990.5
20260505215127 55 92 2.0 4.0 0.00 0.14 0.14 93 990.7
20260505214625 55 23 3.0 4.0 0.00 0.14 0.14 93 990.8
20260505214125 55 23 3.0 6.0 0.00 0.14 0.14 93 990.9
20260505213624 56 99 4.0 7.0 0.00 0.14 0.14 93 991.1
20260505213122 56 69 3.0 7.0 0.00 0.14 0.14 93 991.1
20260505212624 56 62 2.0 9.0 0.00 0.14 0.14 93 991.2
20260505212123 56 65 3.0 10.0 0.00 0.14 0.14 93 991.4
20260505211624 56 37 4.0 10.0 0.01 0.14 0.14 93 991.2
20260505211122 56 24 2.0 12.0 0.01 0.14 0.14 93 991.6
20260505210623 57 25 4.0 12.0 0.01 0.14 0.14 94 991.6
20260505210123 57 3 1.0 12.0 0.01 0.14 0.14 94 991.2
20260505205623 57 55 5.0 12.0 0.01 0.14 0.14 94 990.9
20260505205121 57 72 2.0 6.0 0.01 0.14 0.14 95 990.5
20260505204852 57 100 2.0 6.0 0.02 0.14 0.14 95 990.6
20260505204121 57 82 3.0 6.0 0.02 0.14 0.14 94 990.6
20260505203854 57 90 2.0 3.0 0.02 0.14 0.14 94 990.8
20260505203122 57 79 1.0 7.0 0.02 0.14 0.14 94 991.2
20260505202623 57 23 1.0 7.0 0.02 0.14 0.14 94 991.4
20260505202122 57 30 2.0 4.0 0.02 0.14 0.14 94 991.4
20260505201622 57 25 0.0 4.0 0.02 0.13 0.13 94 991.3
20260505201121 57 65 1.0 5.0 0.02 0.13 0.13 94 991.3
20260505200622 57 354 2.0 5.0 0.02 0.13 0.13 94 991.2
20260505200352 58 11 3.0 5.0 0.02 0.13 0.13 93 991.0
20260505195621 58 51 0.0 2.0 0.02 0.13 0.13 94 991.1
20260505195352 58 51 0.0 2.0 0.02 0.13 0.13 94 990.9
20260505194619 0 58 0.0 0.0 0.06 0.12 0.12 991.0
20260505194119 0 58 0.0 0.0 0.06 0.12 0.12 991.1
20260505193618 0 0.0 0.0 0.06 0.12 0.12 991.1
20260505193117 0 0.0 0.0 0.06 0.12 0.12 991.0
20260505192616 0 0.0 0.0 0.06 0.12 0.12 991.1
20260505192115 0 0.0 0.0 0.06 0.12 0.12 991.1
20260505191613 0 0.0 0.0 0.06 0.12 0.12 991.1
20260505191112 0 0.0 0.0 0.06 0.12 0.12 991.0
20260505190611 0 0.0 0.0 0.06 0.12 0.12 991.0
20260505190110 0 69 3.0 4.0 0.06 0.12 0.12 990.9
20260505185608 61 69 3.0 5.0 0.06 0.12 0.12 93 990.8
20260505184609 0 0.0 0.0 0.00 0.06 0.06 990.7
20260505184107 0 0.0 0.0 0.00 0.06 0.06 990.6
20260505183606 0 0.0 0.0 0.00 0.06 0.06 990.4
20260505183105 0 0.0 0.0 0.00 0.06 0.06 990.5
20260505182103 0 0.0 0.0 0.00 0.06 0.06 990.4
20260505181602 0 0.0 0.0 0.00 0.06 0.06 990.4
20260505181101 0 0.0 0.0 0.01 0.06 0.06 990.4
20260505180559 0 0.0 0.0 0.01 0.06 0.06 990.7
20260505180059 0 0.0 0.0 0.01 0.06 0.06 990.7
20260505175557 0 0.0 0.0 0.01 0.06 0.06 990.7
20260505175056 0 0.0 0.0 0.01 0.06 0.06 990.8
20260505174826 0 0.0 0.0 0.01 0.06 0.06 990.9
20260505174053 0 0.0 0.0 0.01 0.06 0.06 990.7
20260505173553 0 0.0 0.0 0.01 0.06 0.06 990.7
20260505173051 0 0.0 0.0 0.01 0.06 0.06 990.8
20260505172550 64 134 1.0 2.0 0.01 0.06 0.06 92 990.7
20260505172049 64 134 1.0 2.0 0.01 0.06 0.06 92 990.6
20260505171548 64 134 1.0 2.0 0.01 0.06 0.06 92 990.3
20260505171048 64 134 0.0 2.0 0.00 0.06 0.06 92 990.3
20260505170548 64 134 0.0 2.0 0.00 0.06 0.06 92 990.4
20260505170321 64 134 0.0 3.0 0.00 0.06 0.06 92 990.6
20260505165548 64 134 1.0 3.0 0.00 0.06 0.06 91 990.6
20260505165047 64 118 0.0 1.0 0.00 0.06 0.06 92 990.8
20260505164819 64 118 0.0 2.0 0.00 0.06 0.06 92 990.9
20260505164047 64 118 0.0 2.0 0.00 0.06 0.06 91 990.9
20260505163547 63 118 0.0 1.0 0.00 0.06 0.06 91 990.9
20260505163046 63 118 0.0 2.0 0.00 0.06 0.06 91 991.0
20260505162545 63 118 1.0 3.0 0.00 0.06 0.06 91 991.0
20260505162045 63 117 1.0 3.0 0.00 0.06 0.06 90 991.1
20260505161550 63 113 0.0 3.0 0.00 0.06 0.06 90 991.2
20260505161046 63 250 2.0 3.0 0.00 0.06 0.06 91 991.2
20260505153042 62 250 0.0 1.0 0.00 0.06 0.06 91 991.0
20260505152314 62 243 2.0 6.0 0.00 0.06 0.06 91 990.8
20260505151544 62 243 2.0 6.0 0.00 0.06 0.06 91 990.8
20260505151314 62 221 3.0 5.0 0.00 0.06 0.06 91 990.7
20260505150813 62 219 2.0 5.0 0.00 0.06 0.06 91 990.7
20260505140540 61 230 0.0 2.0 0.00 0.06 0.06 93 991.1
20260505124536 60 86 2.0 3.0 0.00 0.06 0.06 93 990.9
20260505124037 60 32 2.0 4.0 0.00 0.06 0.06 93 990.8
20260505123536 60 32 2.0 4.0 0.00 0.06 0.06 93 990.8
20260505123036 60 27 2.0 6.0 0.01 0.06 0.06 92 990.5
20260505122535 60 165 1.0 9.0 0.01 0.06 0.06 92 990.4
20260505122036 60 216 5.0 9.0 0.01 0.06 0.06 92 990.3
20260505121537 60 233 2.0 5.0 0.02 0.06 0.06 92 990.1
20260505120804 60 245 3.0 3.0 0.02 0.06 0.06 91 989.4
20260505120305 60 245 3.0 3.0 0.02 0.06 0.06 91 989.5
20260505115534 60 245 2.0 3.0 0.03 0.06 0.06 90 989.5
20260505115034 60 245 0.0 2.0 0.06 0.06 0.06 89 989.5
20260505114533 60 245 0.0 3.0 0.06 0.06 0.06 89 989.5
20260505114033 60 245 1.0 3.0 0.06 0.06 0.06 89 989.6
20260505113533 60 245 0.0 2.0 0.06 0.06 0.06 89 989.9
20260505113304 60 245 0.0 3.0 0.05 0.05 0.05 89 990.1
20260505112533 60 245 2.0 3.0 0.05 0.05 0.05 89 990.2
20260505112031 61 245 1.0 2.0 0.05 0.05 0.05 88 990.1
20260505111533 61 251 2.0 3.0 0.04 0.04 0.04 86 990.2
20260505111031 61 251 2.0 5.0 0.04 0.04 0.04 86 990.1
20260505110532 62 276 1.0 5.0 0.04 0.04 0.04 85 990.0
20260505102026 61 221 0.0 3.0 0.00 0.00 0.00 83 989.4
20260505101526 61 165 0.0 0.0 0.00 0.00 0.00 83 989.4
20260505101024 60 165 0.0 0.0 0.00 0.00 0.00 84 989.5
20260505100525 60 165 0.0 0.0 0.00 0.00 0.00 84 989.5
20260505100024 60 165 0.0 1.0 0.00 0.00 0.00 84 989.7
20260505095525 60 165 0.0 1.0 0.00 0.00 0.00 84 989.8
20260505095024 60 165 0.0 0.0 0.00 0.00 0.00 83 989.9
20260505094525 60 165 0.0 0.0 0.00 0.00 0.00 83 989.7
20260505094023 60 165 0.0 0.0 0.00 0.00 0.00 83 989.5
20260505093021 60 165 0.0 0.0 0.00 0.00 0.00 83 989.7
20260505092521 61 165 0.0 0.0 0.00 0.00 0.00 82 989.7
20260505092023 61 165 0.0 0.0 0.00 0.00 0.00 82 989.8
20260505091522 61 165 0.0 0.0 0.00 0.00 0.00 82 989.9
20260505091021 61 165 0.0 0.0 0.00 0.00 0.00 82 990.0
20260505090522 61 165 0.0 0.0 0.00 0.00 0.00 82 990.2
20260505090254 61 165 0.0 0.0 0.00 0.00 0.00 81 990.0
20260505085522 61 165 0.0 0.0 0.00 0.00 0.00 81 990.1
20260505085252 61 165 0.0 0.0 0.00 0.00 0.00 81 990.1
20260505084520 62 165 0.0 0.0 0.00 0.00 0.00 81 990.1
20260505084021 62 165 0.0 0.0 0.00 0.00 0.00 80 990.1
20260505083752 62 165 0.0 0.0 0.00 0.00 0.00 80 990.2
20260505083020 62 165 0.0 0.0 0.00 0.00 0.00 80 990.2
20260505082519 62 165 0.0 0.0 0.00 0.00 0.00 79 990.3
20260505082019 62 165 0.0 0.0 0.00 0.00 0.00 79 990.3
20260505081519 62 165 0.0 0.0 0.00 0.00 0.00 78 990.3
20260505081017 63 165 0.0 1.0 0.00 0.00 0.00 78 990.4
20260505080517 63 165 0.0 1.0 0.00 0.00 0.00 78 990.3
20260505080016 64 165 0.0 1.0 0.00 0.00 0.00 75 990.2
20260505075747 64 165 0.0 1.0 0.00 0.00 0.00 75 990.2
20260505075015 0 165 0.0 1.0 0.00 0.00 0.00 990.3
20260505074515 0 165 0.0 1.0 0.00 0.00 0.00 990.3
20260505074242 0 165 0.0 0.0 0.00 0.00 0.00 990.4
20260505073744 65 165 1.0 2.0 0.00 0.00 0.00 73 990.3
20260505073013 65 165 1.0 2.0 0.00 0.00 0.00 73 990.1
20260505072513 66 230 0.0 0.0 0.00 0.00 0.00 72 990.3
20260505072013 66 230 0.0 0.0 0.00 0.00 0.00 72 990.0
20260505071512 66 230 0.0 3.0 0.00 0.00 0.00 71 989.9
20260505071012 66 230 1.0 4.0 0.00 0.00 0.00 71 989.8
20260505070743 66 272 3.0 4.0 0.00 0.00 0.00 71 989.7
20260505070012 66 206 4.0 7.0 0.00 0.00 0.00 70 989.7
20260505065511 66 206 4.0 7.0 0.00 0.00 0.00 70 989.7
20260505065010 67 243 3.0 6.0 0.00 0.00 0.00 70 989.5
20260505064511 67 213 4.0 9.0 0.00 0.00 0.00 70 989.4
20260505064009 67 247 4.0 9.0 0.00 0.00 0.00 70 989.5
20260505063509 67 241 3.0 6.0 0.00 0.00 0.00 70 989.5